Time,TemperatureF,DewpointF,PressureIn,WindDirection,WindDirectionDegrees,WindSpeedMPH,WindSpeedGustMPH,Humidity,HourlyPrecipIn,Conditions,Clouds,dailyrainin,SoftwareType,DateUTC
2014-02-06 00:00:00,47.3,29.1,29.91,NNE,15,7.0,8.0,49,0.00,,,0.00,Wunderground v.1.15,2014-02-06 07:00:00,
2014-02-06 00:10:00,47.1,29.4,29.91,NNE,15,8.0,9.0,50,0.00,,,0.00,Wunderground v.1.15,2014-02-06 07:10:00,
2014-02-06 00:15:00,47.1,29.9,29.92,NNW,348,7.0,9.0,51,0.00,,,0.00,Wunderground v.1.15,2014-02-06 07:15:00,
2014-02-06 00:20:00,46.7,30.0,29.92,NNW,332,7.0,7.0,52,0.00,,,0.00,Wunderground v.1.15,2014-02-06 07:20:00,
2014-02-06 00:30:00,46.3,29.6,29.92,NNW,332,6.0,6.0,52,0.00,,,0.00,Wunderground v.1.15,2014-02-06 07:30:00,
2014-02-06 00:35:00,46.0,29.8,29.92,NW,322,6.0,7.0,53,0.00,,,0.00,Wunderground v.1.15,2014-02-06 07:35:00,
2014-02-06 00:45:00,46.5,29.3,29.92,WNW,300,5.0,6.0,51,0.00,,,0.00,Wunderground v.1.15,2014-02-06 07:45:00,
2014-02-06 00:50:00,46.4,29.2,29.92,NW,308,5.0,5.0,51,0.00,,,0.00,Wunderground v.1.15,2014-02-06 07:50:00,
2014-02-06 00:55:00,46.4,29.2,29.92,NW,304,5.0,5.0,51,0.00,,,0.00,Wunderground v.1.15,2014-02-06 07:55:00,
2014-02-06 01:00:00,46.1,29.0,29.92,WNW,294,5.0,5.0,51,0.00,,,0.00,Wunderground v.1.15,2014-02-06 08:00:00,
2014-02-06 01:05:00,45.8,28.7,29.92,WNW,295,4.0,5.0,51,0.00,,,0.00,Wunderground v.1.15,2014-02-06 08:05:00,
2014-02-06 01:10:00,45.7,28.6,29.93,WNW,290,4.0,4.0,51,0.00,,,0.00,Wunderground v.1.15,2014-02-06 08:10:00,
2014-02-06 01:15:00,45.8,28.7,29.93,WNW,300,3.0,4.0,51,0.00,,,0.00,Wunderground v.1.15,2014-02-06 08:15:00,
2014-02-06 01:20:00,45.5,28.9,29.92,WNW,297,3.0,5.0,52,0.00,,,0.00,Wunderground v.1.15,2014-02-06 08:20:00,
2014-02-06 01:25:00,45.2,28.6,29.92,NW,306,4.0,5.0,52,0.00,,,0.00,Wunderground v.1.15,2014-02-06 08:25:00,
2014-02-06 01:30:00,45.2,28.6,29.92,NW,307,3.0,3.0,52,0.00,,,0.00,Wunderground v.1.15,2014-02-06 08:30:00,
2014-02-06 01:35:00,45.0,28.9,29.92,WNW,297,2.0,3.0,53,0.00,,,0.00,Wunderground v.1.15,2014-02-06 08:35:00,
2014-02-06 01:40:00,45.1,29.0,29.92,WNW,299,2.0,2.0,53,0.00,,,0.00,Wunderground v.1.15,2014-02-06 08:40:00,
2014-02-06 01:50:00,44.1,28.5,29.92,West,281,2.0,2.0,54,0.00,,,0.00,Wunderground v.1.15,2014-02-06 08:50:00,
2014-02-06 01:55:00,43.9,28.8,29.92,WNW,289,1.0,2.0,55,0.00,,,0.00,Wunderground v.1.15,2014-02-06 08:55:00,
2014-02-06 02:00:00,44.4,29.2,29.92,NW,320,2.0,2.0,55,0.00,,,0.00,Wunderground v.1.15,2014-02-06 09:00:00,
2014-02-06 02:05:00,44.8,29.2,29.92,NW,312,2.0,3.0,54,0.00,,,0.00,Wunderground v.1.15,2014-02-06 09:05:00,
2014-02-06 02:15:00,44.3,29.1,29.91,NW,322,3.0,4.0,55,0.00,,,0.00,Wunderground v.1.15,2014-02-06 09:15:00,
2014-02-06 02:25:00,44.3,28.7,29.91,NW,326,4.0,6.0,54,0.00,,,0.00,Wunderground v.1.15,2014-02-06 09:25:00,
2014-02-06 02:30:00,44.1,28.9,29.91,NW,313,4.0,4.0,55,0.00,,,0.00,Wunderground v.1.15,2014-02-06 09:30:00,
2014-02-06 02:35:00,44.0,28.9,29.91,NW,316,3.0,4.0,55,0.00,,,0.00,Wunderground v.1.15,2014-02-06 09:35:00,
2014-02-06 02:40:00,43.8,28.7,29.91,NNW,336,3.0,4.0,55,0.00,,,0.00,Wunderground v.1.15,2014-02-06 09:40:00,
2014-02-06 02:45:00,43.4,28.7,29.91,NW,318,3.0,4.0,56,0.00,,,0.00,Wunderground v.1.15,2014-02-06 09:45:00,
2014-02-06 02:50:00,43.5,28.8,29.91,WNW,298,3.0,3.0,56,0.00,,,0.00,Wunderground v.1.15,2014-02-06 09:50:00,
2014-02-06 02:55:00,44.2,29.0,29.91,WNW,297,3.0,5.0,55,0.00,,,0.00,Wunderground v.1.15,2014-02-06 09:55:00,
2014-02-06 03:00:00,44.5,28.9,29.91,NW,304,4.0,4.0,54,0.00,,,0.00,Wunderground v.1.15,2014-02-06 10:00:00,
2014-02-06 03:05:00,44.8,29.2,29.91,WNW,299,5.0,5.0,54,0.00,,,0.00,Wunderground v.1.15,2014-02-06 10:05:00,
2014-02-06 03:10:00,44.4,29.2,29.91,NW,318,5.0,5.0,55,0.00,,,0.00,Wunderground v.1.15,2014-02-06 10:10:00,
2014-02-06 03:15:00,44.1,29.4,29.91,NW,312,5.0,5.0,56,0.00,,,0.00,Wunderground v.1.15,2014-02-06 10:15:00,
2014-02-06 03:20:00,44.0,29.3,29.91,WNW,291,6.0,6.0,56,0.00,,,0.00,Wunderground v.1.15,2014-02-06 10:20:00,
2014-02-06 03:30:00,44.0,29.3,29.91,WNW,299,5.0,6.0,56,0.00,,,0.00,Wunderground v.1.15,2014-02-06 10:30:00,
2014-02-06 03:40:00,43.1,28.9,29.91,North,351,4.0,4.0,57,0.00,,,0.00,Wunderground v.1.15,2014-02-06 10:40:00,
2014-02-06 03:45:00,43.6,28.9,29.91,NNW,336,2.0,4.0,56,0.00,,,0.00,Wunderground v.1.15,2014-02-06 10:45:00,
2014-02-06 03:50:00,44.0,29.3,29.90,NW,321,2.0,2.0,56,0.00,,,0.00,Wunderground v.1.15,2014-02-06 10:50:00,
2014-02-06 03:55:00,44.0,28.9,29.90,NW,309,1.0,2.0,55,0.00,,,0.00,Wunderground v.1.15,2014-02-06 10:55:00,
2014-02-06 04:05:00,44.4,29.2,29.91,WNW,289,0.0,0.0,55,0.00,,,0.00,Wunderground v.1.15,2014-02-06 11:05:00,
2014-02-06 04:10:00,43.8,28.7,29.90,NW,314,0.0,0.0,55,0.00,,,0.00,Wunderground v.1.15,2014-02-06 11:10:00,
2014-02-06 04:15:00,43.8,29.1,29.91,NW,323,0.0,0.0,56,0.00,,,0.00,Wunderground v.1.15,2014-02-06 11:15:00,
2014-02-06 04:20:00,44.1,28.9,29.90,NW,316,1.0,2.0,55,0.00,,,0.00,Wunderground v.1.15,2014-02-06 11:20:00,
2014-02-06 04:25:00,44.2,29.0,29.90,NW,318,2.0,2.0,55,0.00,,,0.00,Wunderground v.1.15,2014-02-06 11:25:00,
2014-02-06 04:35:00,44.5,29.3,29.90,NW,320,3.0,3.0,55,0.00,,,0.00,Wunderground v.1.15,2014-02-06 11:35:00,
2014-02-06 04:40:00,44.5,28.9,29.90,NW,322,3.0,3.0,54,0.00,,,0.00,Wunderground v.1.15,2014-02-06 11:40:00,
2014-02-06 04:45:00,44.1,28.5,29.90,North,360,2.0,3.0,54,0.00,,,0.00,Wunderground v.1.15,2014-02-06 11:45:00,
2014-02-06 04:50:00,43.8,29.1,29.90,NNE,25,1.0,1.0,56,0.00,,,0.00,Wunderground v.1.15,2014-02-06 11:50:00,
2014-02-06 04:55:00,43.3,28.6,29.89,NW,314,0.0,1.0,56,0.00,,,0.00,Wunderground v.1.15,2014-02-06 11:55:00,
2014-02-06 05:00:00,43.3,29.1,29.90,WNW,294,0.0,0.0,57,0.00,,,0.00,Wunderground v.1.15,2014-02-06 12:00:00,
2014-02-06 05:10:00,42.7,28.9,29.89,WNW,288,0.0,0.0,58,0.00,,,0.00,Wunderground v.1.15,2014-02-06 12:10:00,
2014-02-06 05:15:00,42.8,29.0,29.89,WNW,295,1.0,3.0,58,0.00,,,0.00,Wunderground v.1.15,2014-02-06 12:15:00,
2014-02-06 05:20:00,42.7,28.9,29.90,NW,318,2.0,2.0,58,0.00,,,0.00,Wunderground v.1.15,2014-02-06 12:20:00,
2014-02-06 05:25:00,42.9,28.7,29.90,NW,318,1.0,2.0,57,0.00,,,0.00,Wunderground v.1.15,2014-02-06 12:25:00,
2014-02-06 05:30:00,43.0,28.8,29.90,NNW,332,1.0,1.0,57,0.00,,,0.00,Wunderground v.1.15,2014-02-06 12:30:00,
2014-02-06 05:40:00,43.3,28.6,29.91,NNW,330,0.0,1.0,56,0.00,,,0.00,Wunderground v.1.15,2014-02-06 12:40:00,
2014-02-06 05:50:00,43.8,28.7,29.91,NNW,329,0.0,0.0,55,0.00,,,0.00,Wunderground v.1.15,2014-02-06 12:50:00,
2014-02-06 05:55:00,43.5,28.8,29.91,West,280,0.0,0.0,56,0.00,,,0.00,Wunderground v.1.15,2014-02-06 12:55:00,
2014-02-06 06:00:00,44.1,29.4,29.91,SW,236,1.0,1.0,56,0.00,,,0.00,Wunderground v.1.15,2014-02-06 13:00:00,
2014-02-06 06:05:00,44.0,29.3,29.92,WSW,249,1.0,2.0,56,0.00,,,0.00,Wunderground v.1.15,2014-02-06 13:05:00,
2014-02-06 06:10:00,43.7,29.5,29.92,SW,231,2.0,3.0,57,0.00,,,0.00,Wunderground v.1.15,2014-02-06 13:10:00,
2014-02-06 06:20:00,43.1,28.9,29.92,WSW,246,3.0,3.0,57,0.00,,,0.00,Wunderground v.1.15,2014-02-06 13:20:00,
2014-02-06 06:25:00,42.7,28.9,29.91,WSW,242,2.0,3.0,58,0.00,,,0.00,Wunderground v.1.15,2014-02-06 13:25:00,
2014-02-06 06:30:00,42.4,29.1,29.91,WSW,243,2.0,2.0,59,0.00,,,0.00,Wunderground v.1.15,2014-02-06 13:30:00,
2014-02-06 06:35:00,42.2,28.9,29.91,WNW,283,1.0,2.0,59,0.00,,,0.00,Wunderground v.1.15,2014-02-06 13:35:00,
2014-02-06 06:40:00,41.9,29.0,29.91,NW,316,1.0,3.0,60,0.00,,,0.00,Wunderground v.1.15,2014-02-06 13:40:00,
2014-02-06 06:50:00,42.0,29.1,29.91,NW,304,3.0,3.0,60,0.00,,,0.00,Wunderground v.1.15,2014-02-06 13:50:00,
2014-02-06 06:55:00,42.8,29.5,29.92,WNW,302,4.0,6.0,59,0.00,,,0.00,Wunderground v.1.15,2014-02-06 13:55:00,
2014-02-06 07:00:00,43.3,29.1,29.92,WNW,302,5.0,5.0,57,0.00,,,0.00,Wunderground v.1.15,2014-02-06 14:00:00,
2014-02-06 07:05:00,43.4,28.7,29.92,NW,309,5.0,5.0,56,0.00,,,0.00,Wunderground v.1.15,2014-02-06 14:05:00,
2014-02-06 07:10:00,43.6,28.9,29.92,WNW,297,5.0,5.0,56,0.00,,,0.00,Wunderground v.1.15,2014-02-06 14:10:00,
2014-02-06 07:15:00,43.6,28.9,29.92,West,273,4.0,5.0,56,0.00,,,0.00,Wunderground v.1.15,2014-02-06 14:15:00,
2014-02-06 07:25:00,43.3,28.6,29.92,SSE,151,1.0,2.0,56,0.00,,,0.00,Wunderground v.1.15,2014-02-06 14:25:00,
2014-02-06 07:30:00,43.4,28.7,29.92,SSE,151,0.0,0.0,56,0.00,,,0.00,Wunderground v.1.15,2014-02-06 14:30:00,
2014-02-06 07:40:00,44.1,28.5,29.92,WSW,250,0.0,0.0,54,0.00,,,0.00,Wunderground v.1.15,2014-02-06 14:40:00,
2014-02-06 07:45:00,44.2,28.6,29.91,WSW,257,0.0,0.0,54,0.00,,,0.00,Wunderground v.1.15,2014-02-06 14:45:00,
2014-02-06 07:50:00,43.9,29.2,29.91,NNW,342,0.0,0.0,56,0.00,,,0.00,Wunderground v.1.15,2014-02-06 14:50:00,
2014-02-06 08:00:00,43.7,29.0,29.91,WNW,290,0.0,0.0,56,0.00,,,0.00,Wunderground v.1.15,2014-02-06 15:00:00,
2014-02-06 08:05:00,44.1,28.9,29.91,NW,314,1.0,1.0,55,0.00,,,0.00,Wunderground v.1.15,2014-02-06 15:05:00,
2014-02-06 08:10:00,44.6,29.9,29.91,NW,314,1.0,1.0,56,0.00,,,0.00,Wunderground v.1.15,2014-02-06 15:10:00,
2014-02-06 08:15:00,45.0,29.8,29.91,NW,314,0.0,1.0,55,0.00,,,0.00,Wunderground v.1.15,2014-02-06 15:15:00,
2014-02-06 08:20:00,45.3,30.1,29.91,NW,314,0.0,0.0,55,0.00,,,0.00,Wunderground v.1.15,2014-02-06 15:20:00,
2014-02-06 08:30:00,46.9,29.7,29.92,NW,309,0.0,0.0,51,0.00,,,0.00,Wunderground v.1.15,2014-02-06 15:30:00,
2014-02-06 08:35:00,47.3,30.1,29.92,SSE,158,0.0,0.0,51,0.00,,,0.00,Wunderground v.1.15,2014-02-06 15:35:00,
2014-02-06 08:40:00,46.7,30.0,29.92,ESE,116,0.0,0.0,52,0.00,,,0.00,Wunderground v.1.15,2014-02-06 15:40:00,
2014-02-06 08:45:00,46.5,30.3,29.92,ESE,120,0.0,0.0,53,0.00,,,0.00,Wunderground v.1.15,2014-02-06 15:45:00,
2014-02-06 08:50:00,46.3,30.5,29.92,ESE,103,0.0,0.0,54,0.00,,,0.00,Wunderground v.1.15,2014-02-06 15:50:00,
2014-02-06 08:55:00,46.1,30.4,29.92,ENE,77,0.0,0.0,54,0.00,,,0.00,Wunderground v.1.15,2014-02-06 15:55:00,
2014-02-06 09:05:00,46.5,30.3,29.92,ENE,77,0.0,0.0,53,0.00,,,0.00,Wunderground v.1.15,2014-02-06 16:05:00,
2014-02-06 09:15:00,46.8,30.1,29.93,SSW,211,0.0,0.0,52,0.00,,,0.00,Wunderground v.1.15,2014-02-06 16:15:00,
2014-02-06 09:20:00,46.6,30.4,29.93,SW,214,0.0,0.0,53,0.00,,,0.00,Wunderground v.1.15,2014-02-06 16:20:00,
2014-02-06 09:25:00,46.6,29.9,29.93,SW,214,0.0,0.0,52,0.00,,,0.00,Wunderground v.1.15,2014-02-06 16:25:00,
2014-02-06 09:30:00,46.8,30.1,29.93,SW,214,0.0,0.0,52,0.00,,,0.00,Wunderground v.1.15,2014-02-06 16:30:00,
2014-02-06 09:40:00,47.0,30.3,29.93,SE,145,0.0,0.0,52,0.00,,,0.00,Wunderground v.1.15,2014-02-06 16:40:00,
2014-02-06 09:45:00,47.4,30.2,29.94,SSW,207,0.0,0.0,51,0.00,,,0.00,Wunderground v.1.15,2014-02-06 16:45:00,
2014-02-06 09:50:00,47.7,30.4,29.94,SSE,153,0.0,1.0,51,0.00,,,0.00,Wunderground v.1.15,2014-02-06 16:50:00,
2014-02-06 09:55:00,47.8,30.5,29.94,SE,124,1.0,1.0,51,0.00,,,0.00,Wunderground v.1.15,2014-02-06 16:55:00,
2014-02-06 10:00:00,47.7,30.4,29.93,ESE,114,0.0,0.0,51,0.00,,,0.00,Wunderground v.1.15,2014-02-06 17:00:00,
2014-02-06 10:10:00,47.9,31.1,29.93,ESE,102,0.0,0.0,52,0.00,,,0.00,Wunderground v.1.15,2014-02-06 17:10:00,
2014-02-06 10:20:00,47.9,30.6,29.93,ENE,59,0.0,0.0,51,0.00,,,0.00,Wunderground v.1.15,2014-02-06 17:20:00,
2014-02-06 10:25:00,48.0,31.2,29.93,East,97,0.0,0.0,52,0.00,,,0.00,Wunderground v.1.15,2014-02-06 17:25:00,
2014-02-06 10:30:00,48.4,30.6,29.93,East,97,0.0,0.0,50,0.00,,,0.00,Wunderground v.1.15,2014-02-06 17:30:00,
2014-02-06 10:35:00,48.7,30.4,29.93,East,86,0.0,0.0,49,0.00,,,0.00,Wunderground v.1.15,2014-02-06 17:35:00,
2014-02-06 10:40:00,49.0,30.1,29.93,WNW,287,0.0,0.0,48,0.00,,,0.00,Wunderground v.1.15,2014-02-06 17:40:00,
2014-02-06 10:45:00,49.4,28.9,29.93,SW,235,0.0,1.0,45,0.00,,,0.00,Wunderground v.1.15,2014-02-06 17:45:00,
2014-02-06 10:50:00,49.8,29.8,29.93,SW,223,1.0,2.0,46,0.00,,,0.00,Wunderground v.1.15,2014-02-06 17:50:00,
2014-02-06 10:55:00,50.0,29.5,29.93,WSW,238,1.0,3.0,45,0.00,,,0.00,Wunderground v.1.15,2014-02-06 17:55:00,
2014-02-06 11:00:00,50.0,30.0,29.94,WSW,256,2.0,4.0,46,0.00,,,0.00,Wunderground v.1.15,2014-02-06 18:00:00,
2014-02-06 11:05:00,50.2,29.1,29.94,West,264,3.0,5.0,44,0.00,,,0.00,Wunderground v.1.15,2014-02-06 18:05:00,
2014-02-06 11:10:00,50.1,29.6,29.94,WSW,256,3.0,4.0,45,0.00,,,0.00,Wunderground v.1.15,2014-02-06 18:10:00,
2014-02-06 11:20:00,50.5,29.4,29.93,SSW,203,3.0,4.0,44,0.00,,,0.00,Wunderground v.1.15,2014-02-06 18:20:00,
2014-02-06 11:25:00,50.7,29.6,29.93,SW,226,2.0,4.0,44,0.00,,,0.00,Wunderground v.1.15,2014-02-06 18:25:00,
2014-02-06 11:30:00,51.0,29.3,29.93,West,277,2.0,2.0,43,0.00,,,0.00,Wunderground v.1.15,2014-02-06 18:30:00,
2014-02-06 11:35:00,51.3,29.5,29.93,SW,226,3.0,3.0,43,0.00,,,0.00,Wunderground v.1.15,2014-02-06 18:35:00,
2014-02-06 11:40:00,51.8,30.0,29.92,SSE,162,3.0,3.0,43,0.00,,,0.00,Wunderground v.1.15,2014-02-06 18:40:00,
2014-02-06 11:50:00,51.2,29.4,29.91,SSE,157,3.0,3.0,43,0.00,,,0.00,Wunderground v.1.15,2014-02-06 18:50:00,
2014-02-06 12:00:00,50.7,30.1,29.91,East,100,3.0,3.0,45,0.00,,,0.00,Wunderground v.1.15,2014-02-06 19:00:00,
2014-02-06 12:05:00,50.9,30.3,29.91,NE,49,2.0,3.0,45,0.00,,,0.00,Wunderground v.1.15,2014-02-06 19:05:00,
2014-02-06 12:10:00,51.3,30.7,29.91,ESE,116,2.0,2.0,45,0.00,,,0.00,Wunderground v.1.15,2014-02-06 19:10:00,
2014-02-06 12:15:00,51.9,30.6,29.91,SSE,153,1.0,2.0,44,0.00,,,0.00,Wunderground v.1.15,2014-02-06 19:15:00,
2014-02-06 12:25:00,52.5,30.6,29.91,SW,224,2.0,2.0,43,0.00,,,0.00,Wunderground v.1.15,2014-02-06 19:25:00,
2014-02-06 12:30:00,53.1,30.6,29.91,SW,221,1.0,1.0,42,0.00,,,0.00,Wunderground v.1.15,2014-02-06 19:30:00,
2014-02-06 12:35:00,53.3,30.2,29.91,East,84,1.0,1.0,41,0.00,,,0.00,Wunderground v.1.15,2014-02-06 19:35:00,
2014-02-06 12:40:00,53.3,30.8,29.91,SSW,201,1.0,3.0,42,0.00,,,0.00,Wunderground v.1.15,2014-02-06 19:40:00,
2014-02-06 12:45:00,53.3,30.2,29.90,WSW,252,2.0,3.0,41,0.00,,,0.00,Wunderground v.1.15,2014-02-06 19:45:00,
2014-02-06 12:50:00,52.7,30.2,29.91,SSW,210,2.0,4.0,42,0.00,,,0.00,Wunderground v.1.15,2014-02-06 19:50:00,
2014-02-06 13:00:00,52.7,30.2,29.91,SW,225,3.0,5.0,42,0.00,,,0.00,Wunderground v.1.15,2014-02-06 20:00:00,
2014-02-06 13:05:00,52.8,30.3,29.91,WSW,246,3.0,5.0,42,0.00,,,0.00,Wunderground v.1.15,2014-02-06 20:05:00,
2014-02-06 13:10:00,52.3,29.9,29.90,WSW,249,4.0,6.0,42,0.00,,,0.00,Wunderground v.1.15,2014-02-06 20:10:00,
2014-02-06 13:15:00,52.4,30.0,29.90,West,269,5.0,6.0,42,0.00,,,0.00,Wunderground v.1.15,2014-02-06 20:15:00,
2014-02-06 13:25:00,52.2,29.8,29.89,SW,220,3.0,4.0,42,0.00,,,0.00,Wunderground v.1.15,2014-02-06 20:25:00,
2014-02-06 13:35:00,52.8,29.7,29.88,SE,138,3.0,4.0,41,0.00,,,0.00,Wunderground v.1.15,2014-02-06 20:35:00,
2014-02-06 13:40:00,52.9,29.8,29.88,SW,214,2.0,2.0,41,0.00,,,0.00,Wunderground v.1.15,2014-02-06 20:40:00,
2014-02-06 13:45:00,53.1,29.4,29.88,SSE,156,2.0,3.0,40,0.00,,,0.00,Wunderground v.1.15,2014-02-06 20:45:00,
2014-02-06 13:50:00,52.9,29.2,29.89,WSW,237,2.0,2.0,40,0.00,,,0.00,Wunderground v.1.15,2014-02-06 20:50:00,
2014-02-06 13:55:00,53.0,29.3,29.88,South,176,2.0,6.0,40,0.00,,,0.00,Wunderground v.1.15,2014-02-06 20:55:00,
2014-02-06 14:05:00,53.8,30.0,29.88,SE,141,4.0,6.0,40,0.00,,,0.00,Wunderground v.1.15,2014-02-06 21:05:00,
2014-02-06 14:10:00,53.7,29.3,29.88,SSE,148,4.0,5.0,39,0.00,,,0.00,Wunderground v.1.15,2014-02-06 21:10:00,
2014-02-06 14:15:00,53.6,29.8,29.88,SSE,163,4.0,5.0,40,0.00,,,0.00,Wunderground v.1.15,2014-02-06 21:15:00,
2014-02-06 14:20:00,53.4,29.7,29.88,South,191,4.0,4.0,40,0.00,,,0.00,Wunderground v.1.15,2014-02-06 21:20:00,
2014-02-06 14:25:00,53.4,29.0,29.87,SSW,207,4.0,4.0,39,0.00,,,0.00,Wunderground v.1.15,2014-02-06 21:25:00,
2014-02-06 14:30:00,53.4,29.7,29.87,SW,226,3.0,3.0,40,0.00,,,0.00,Wunderground v.1.15,2014-02-06 21:30:00,
2014-02-06 14:40:00,53.5,29.1,29.86,SSE,153,4.0,4.0,39,0.00,,,0.00,Wunderground v.1.15,2014-02-06 21:40:00,
2014-02-06 14:50:00,53.8,29.4,29.86,ENE,68,3.0,3.0,39,0.00,,,0.00,Wunderground v.1.15,2014-02-06 21:50:00,
2014-02-06 14:55:00,53.7,29.3,29.86,SE,132,2.0,3.0,39,0.00,,,0.00,Wunderground v.1.15,2014-02-06 21:55:00,
2014-02-06 15:00:00,54.1,29.0,29.86,SW,217,3.0,4.0,38,0.00,,,0.00,Wunderground v.1.15,2014-02-06 22:00:00,
2014-02-06 15:05:00,53.7,28.7,29.86,West,278,3.0,4.0,38,0.00,,,0.00,Wunderground v.1.15,2014-02-06 22:05:00,
2014-02-06 15:10:00,53.7,28.7,29.85,South,174,3.0,4.0,38,0.00,,,0.00,Wunderground v.1.15,2014-02-06 22:10:00,
2014-02-06 15:15:00,53.7,28.7,29.85,SSW,194,4.0,4.0,38,0.00,,,0.00,Wunderground v.1.15,2014-02-06 22:15:00,
2014-02-06 15:20:00,54.0,28.9,29.85,SW,221,3.0,5.0,38,0.00,,,0.00,Wunderground v.1.15,2014-02-06 22:20:00,
2014-02-06 15:25:00,53.5,29.1,29.85,WSW,256,4.0,5.0,39,0.00,,,0.00,Wunderground v.1.15,2014-02-06 22:25:00,
2014-02-06 15:30:00,53.9,29.5,29.85,SW,214,5.0,5.0,39,0.00,,,0.00,Wunderground v.1.15,2014-02-06 22:30:00,
2014-02-06 15:35:00,53.9,28.8,29.85,SSW,203,4.0,5.0,38,0.00,,,0.00,Wunderground v.1.15,2014-02-06 22:35:00,
2014-02-06 15:45:00,54.4,29.3,29.84,SSW,197,3.0,4.0,38,0.00,,,0.00,Wunderground v.1.15,2014-02-06 22:45:00,
2014-02-06 15:50:00,54.2,29.1,29.84,SSW,197,3.0,4.0,38,0.00,,,0.00,Wunderground v.1.15,2014-02-06 22:50:00,
2014-02-06 15:55:00,54.2,29.1,29.84,SSW,194,5.0,7.0,38,0.00,,,0.00,Wunderground v.1.15,2014-02-06 22:55:00,
2014-02-06 16:05:00,53.9,28.8,29.84,SSW,204,4.0,7.0,38,0.00,,,0.00,Wunderground v.1.15,2014-02-06 23:05:00,
2014-02-06 16:10:00,53.8,28.8,29.84,SSW,207,4.0,4.0,38,0.00,,,0.00,Wunderground v.1.15,2014-02-06 23:10:00,
2014-02-06 16:20:00,54.0,28.9,29.84,SSW,204,4.0,5.0,38,0.00,,,0.00,Wunderground v.1.15,2014-02-06 23:20:00,
2014-02-06 16:25:00,53.9,28.8,29.84,WSW,239,3.0,5.0,38,0.00,,,0.00,Wunderground v.1.15,2014-02-06 23:25:00,
2014-02-06 16:30:00,53.7,29.3,29.84,SE,131,3.0,3.0,39,0.00,,,0.00,Wunderground v.1.15,2014-02-06 23:30:00,
2014-02-06 16:35:00,53.8,29.4,29.84,SSE,155,3.0,3.0,39,0.00,,,0.00,Wunderground v.1.15,2014-02-06 23:35:00,
2014-02-06 16:40:00,54.0,28.9,29.84,SW,226,2.0,2.0,38,0.00,,,0.00,Wunderground v.1.15,2014-02-06 23:40:00,
2014-02-06 16:45:00,53.8,29.4,29.84,SW,218,2.0,2.0,39,0.00,,,0.00,Wunderground v.1.15,2014-02-06 23:45:00,
2014-02-06 16:50:00,53.9,29.5,29.84,WSW,248,2.0,2.0,39,0.00,,,0.00,Wunderground v.1.15,2014-02-06 23:50:00,
2014-02-06 16:55:00,53.6,29.2,29.84,West,263,3.0,3.0,39,0.00,,,0.00,Wunderground v.1.15,2014-02-06 23:55:00,
2014-02-06 17:00:00,53.2,29.5,29.83,South,179,3.0,3.0,40,0.00,,,0.00,Wunderground v.1.15,2014-02-07 00:00:00,
2014-02-06 17:05:00,53.3,29.6,29.83,South,179,3.0,4.0,40,0.00,,,0.00,Wunderground v.1.15,2014-02-07 00:05:00,
2014-02-06 17:10:00,53.1,28.8,29.83,SSW,207,3.0,3.0,39,0.00,,,0.00,Wunderground v.1.15,2014-02-07 00:10:00,
2014-02-06 17:15:00,53.0,29.3,29.83,SW,226,3.0,3.0,40,0.00,,,0.00,Wunderground v.1.15,2014-02-07 00:15:00,
2014-02-06 17:25:00,52.8,29.1,29.83,SW,229,2.0,4.0,40,0.00,,,0.00,Wunderground v.1.15,2014-02-07 00:25:00,
2014-02-06 17:30:00,52.7,29.0,29.83,SSW,194,2.0,2.0,40,0.00,,,0.00,Wunderground v.1.15,2014-02-07 00:30:00,
2014-02-06 17:35:00,52.5,29.5,29.83,SW,215,2.0,2.0,41,0.00,,,0.00,Wunderground v.1.15,2014-02-07 00:35:00,
2014-02-06 17:40:00,52.4,29.4,29.83,West,259,1.0,2.0,41,0.00,,,0.00,Wunderground v.1.15,2014-02-07 00:40:00,
2014-02-06 17:50:00,52.2,29.8,29.84,West,273,2.0,2.0,42,0.00,,,0.00,Wunderground v.1.15,2014-02-07 00:50:00,
2014-02-06 18:00:00,52.0,29.0,29.84,West,278,2.0,2.0,41,0.00,,,0.00,Wunderground v.1.15,2014-02-07 01:00:00,
2014-02-06 18:05:00,52.0,29.0,29.84,WSW,257,2.0,2.0,41,0.00,,,0.00,Wunderground v.1.15,2014-02-07 01:05:00,
2014-02-06 18:10:00,52.0,29.0,29.84,WSW,248,2.0,2.0,41,0.00,,,0.00,Wunderground v.1.15,2014-02-07 01:10:00,
2014-02-06 18:15:00,52.0,29.0,29.84,WSW,253,2.0,3.0,41,0.00,,,0.00,Wunderground v.1.15,2014-02-07 01:15:00,
2014-02-06 18:20:00,51.9,28.9,29.84,West,259,1.0,2.0,41,0.00,,,0.00,Wunderground v.1.15,2014-02-07 01:20:00,
2014-02-06 18:25:00,52.0,29.0,29.84,NNW,329,2.0,2.0,41,0.00,,,0.00,Wunderground v.1.15,2014-02-07 01:25:00,
2014-02-06 18:35:00,51.9,29.5,29.84,NW,319,2.0,4.0,42,0.00,,,0.00,Wunderground v.1.15,2014-02-07 01:35:00,
2014-02-06 18:40:00,51.8,29.4,29.84,NW,313,3.0,3.0,42,0.00,,,0.00,Wunderground v.1.15,2014-02-07 01:40:00,
2014-02-06 18:45:00,51.8,29.4,29.84,NW,306,3.0,3.0,42,0.00,,,0.00,Wunderground v.1.15,2014-02-07 01:45:00,
2014-02-06 18:50:00,51.8,29.4,29.84,NNW,327,2.0,3.0,42,0.00,,,0.00,Wunderground v.1.15,2014-02-07 01:50:00,
2014-02-06 18:55:00,51.7,29.3,29.84,NW,323,3.0,4.0,42,0.00,,,0.00,Wunderground v.1.15,2014-02-07 01:55:00,
2014-02-06 19:05:00,51.8,28.8,29.84,NW,319,3.0,3.0,41,0.00,,,0.00,Wunderground v.1.15,2014-02-07 02:05:00,
2014-02-06 19:10:00,51.7,29.3,29.84,NNE,33,2.0,2.0,42,0.00,,,0.00,Wunderground v.1.15,2014-02-07 02:10:00,
2014-02-06 19:20:00,51.3,29.5,29.84,East,87,0.0,0.0,43,0.00,,,0.00,Wunderground v.1.15,2014-02-07 02:20:00,
2014-02-06 19:25:00,51.0,29.3,29.85,East,87,0.0,0.0,43,0.00,,,0.00,Wunderground v.1.15,2014-02-07 02:25:00,
2014-02-06 19:30:00,50.9,29.2,29.85,WNW,294,0.0,1.0,43,0.00,,,0.00,Wunderground v.1.15,2014-02-07 02:30:00,
2014-02-06 19:40:00,51.1,29.4,29.85,WNW,295,1.0,1.0,43,0.00,,,0.00,Wunderground v.1.15,2014-02-07 02:40:00,
2014-02-06 19:45:00,51.3,29.0,29.85,WNW,295,1.0,1.0,42,0.00,,,0.00,Wunderground v.1.15,2014-02-07 02:45:00,
2014-02-06 19:50:00,51.4,29.1,29.86,WNW,295,0.0,0.0,42,0.00,,,0.00,Wunderground v.1.15,2014-02-07 02:50:00,
2014-02-06 19:55:00,51.4,29.1,29.86,WNW,295,0.0,0.0,42,0.00,,,0.00,Wunderground v.1.15,2014-02-07 02:55:00,
2014-02-06 20:00:00,51.5,28.6,29.86,WNW,295,0.0,0.0,41,0.00,,,0.00,Wunderground v.1.15,2014-02-07 03:00:00,
2014-02-06 20:10:00,51.7,29.3,29.86,NW,311,0.0,0.0,42,0.00,,,0.00,Wunderground v.1.15,2014-02-07 03:10:00,
2014-02-06 20:15:00,51.6,29.2,29.86,NNW,327,2.0,4.0,42,0.00,,,0.00,Wunderground v.1.15,2014-02-07 03:15:00,
2014-02-06 20:25:00,51.4,29.6,29.86,NW,318,4.0,4.0,43,0.00,,,0.00,Wunderground v.1.15,2014-02-07 03:25:00,
2014-02-06 20:30:00,51.5,29.1,29.86,North,9,2.0,2.0,42,0.00,,,0.00,Wunderground v.1.15,2014-02-07 03:30:00,
2014-02-06 20:35:00,51.5,29.1,29.85,NW,316,2.0,2.0,42,0.00,,,0.00,Wunderground v.1.15,2014-02-07 03:35:00,
2014-02-06 20:40:00,51.7,28.7,29.85,North,350,2.0,3.0,41,0.00,,,0.00,Wunderground v.1.15,2014-02-07 03:40:00,
2014-02-06 20:50:00,51.7,28.7,29.85,NNW,333,1.0,1.0,41,0.00,,,0.00,Wunderground v.1.15,2014-02-07 03:50:00,
2014-02-06 20:55:00,51.6,29.2,29.85,NNW,333,0.0,1.0,42,0.00,,,0.00,Wunderground v.1.15,2014-02-07 03:55:00,
2014-02-06 21:00:00,51.4,29.1,29.86,ESE,121,0.0,0.0,42,0.00,,,0.00,Wunderground v.1.15,2014-02-07 04:00:00,
2014-02-06 21:05:00,51.0,30.4,29.86,East,91,1.0,3.0,45,0.00,,,0.00,Wunderground v.1.15,2014-02-07 04:05:00,
2014-02-06 21:10:00,50.6,31.1,29.86,NNE,27,2.0,3.0,47,0.00,,,0.00,Wunderground v.1.15,2014-02-07 04:10:00,
2014-02-06 21:20:00,50.9,30.3,29.85,NE,56,4.0,4.0,45,0.00,,,0.00,Wunderground v.1.15,2014-02-07 04:20:00,
2014-02-06 21:30:00,51.4,30.7,29.86,NE,46,4.0,4.0,45,0.00,,,0.00,Wunderground v.1.15,2014-02-07 04:30:00,
2014-02-06 21:35:00,51.3,31.7,29.86,ENE,57,2.0,4.0,47,0.00,,,0.00,Wunderground v.1.15,2014-02-07 04:35:00,
2014-02-06 21:40:00,51.0,32.0,29.85,NNE,29,2.0,3.0,48,0.00,,,0.00,Wunderground v.1.15,2014-02-07 04:40:00,
2014-02-06 21:45:00,50.9,32.4,29.86,ENE,71,3.0,5.0,49,0.00,,,0.00,Wunderground v.1.15,2014-02-07 04:45:00,
2014-02-06 21:50:00,50.5,32.0,29.86,ENE,75,4.0,4.0,49,0.00,,,0.00,Wunderground v.1.15,2014-02-07 04:50:00,
2014-02-06 21:55:00,50.4,31.4,29.86,ENE,58,3.0,4.0,48,0.00,,,0.00,Wunderground v.1.15,2014-02-07 04:55:00,
2014-02-06 22:00:00,50.5,31.0,29.86,NE,43,4.0,4.0,47,0.00,,,0.00,Wunderground v.1.15,2014-02-07 05:00:00,
2014-02-06 22:05:00,50.5,30.5,29.85,ENE,57,4.0,4.0,46,0.00,,,0.00,Wunderground v.1.15,2014-02-07 05:05:00,
2014-02-06 22:10:00,50.4,30.4,29.86,ENE,66,3.0,3.0,46,0.00,,,0.00,Wunderground v.1.15,2014-02-07 05:10:00,
2014-02-06 22:15:00,50.2,30.7,29.86,ENE,71,2.0,3.0,47,0.00,,,0.00,Wunderground v.1.15,2014-02-07 05:15:00,
2014-02-06 22:20:00,50.0,30.5,29.86,ENE,70,1.0,1.0,47,0.00,,,0.00,Wunderground v.1.15,2014-02-07 05:20:00,
2014-02-06 22:25:00,49.9,30.5,29.86,ENE,69,0.0,1.0,47,0.00,,,0.00,Wunderground v.1.15,2014-02-07 05:25:00,
2014-02-06 22:30:00,50.0,30.0,29.86,WNW,290,0.0,0.0,46,0.00,,,0.00,Wunderground v.1.15,2014-02-07 05:30:00,
2014-02-06 22:35:00,50.4,29.8,29.86,WNW,289,0.0,0.0,45,0.00,,,0.00,Wunderground v.1.15,2014-02-07 05:35:00,
2014-02-06 22:40:00,50.6,29.5,29.87,SW,233,0.0,0.0,44,0.00,,,0.00,Wunderground v.1.15,2014-02-07 05:40:00,
2014-02-06 22:45:00,50.9,30.3,29.87,WSW,240,2.0,8.0,45,0.00,,,0.00,Wunderground v.1.15,2014-02-07 05:45:00,
2014-02-06 22:50:00,50.5,29.9,29.87,SSW,203,4.0,4.0,45,0.00,,,0.00,Wunderground v.1.15,2014-02-07 05:50:00,
2014-02-06 22:55:00,50.2,30.2,29.87,South,172,3.0,4.0,46,0.00,,,0.00,Wunderground v.1.15,2014-02-07 05:55:00,
2014-02-06 23:05:00,50.1,29.6,29.87,WSW,253,1.0,2.0,45,0.00,,,0.00,Wunderground v.1.15,2014-02-07 06:05:00,
2014-02-06 23:10:00,50.2,29.7,29.87,SSW,203,1.0,1.0,45,0.00,,,0.00,Wunderground v.1.15,2014-02-07 06:10:00,
2014-02-06 23:20:00,50.0,30.0,29.87,West,260,1.0,1.0,46,0.00,,,0.00,Wunderground v.1.15,2014-02-07 06:20:00,
2014-02-06 23:25:00,49.9,30.5,29.87,West,260,1.0,2.0,47,0.00,,,0.00,Wunderground v.1.15,2014-02-07 06:25:00,
2014-02-06 23:30:00,49.8,30.4,29.87,West,266,1.0,1.0,47,0.00,,,0.00,Wunderground v.1.15,2014-02-07 06:30:00,
2014-02-06 23:35:00,49.8,30.9,29.88,WSW,245,1.0,2.0,48,0.00,,,0.00,Wunderground v.1.15,2014-02-07 06:35:00,
2014-02-06 23:45:00,49.7,31.8,29.88,WSW,250,2.0,2.0,50,0.00,,,0.00,Wunderground v.1.15,2014-02-07 06:45:00,
2014-02-06 23:50:00,49.6,31.7,29.88,SW,226,2.0,2.0,50,0.00,,,0.00,Wunderground v.1.15,2014-02-07 06:50:00,
2014-02-06 23:55:00,49.6,32.2,29.87,SSW,194,2.0,2.0,51,0.00,,,0.00,Wunderground v.1.15,2014-02-07 06:55:00,